Language: 


Des rapports , des résumés tant et plus, au choix de chacun....


Données statistiques de la station
Quotidien Rapport Aout 3, 2017 Unités:  Anglais    Métrique   les deux
« Précédent Jour
Suivant Jour »
Quotidien Hebdomadaire Mensuel Annuel Actuel
  Haut: Bas: Moyen:
Température: 76.5 °F 61.3 °F 67.5 °F
Pt de rosée: 68 °F 51.8 °F 58.1 °F
Humidité: 97 % 42 % 74 %
Vitesse du vent: 28.4 mph 0 mph 9.9 mph
Rafales: 33.8 mph - -
Vent:- - WSW
Pression: 29.9 in 29.8 in -
Précipitation: 0.12 in    
Historical Graphs
 
 
Données statistiques pour Aout 3, 2017
Heure Température Point de rosée Pression Vent Vitesse du vent Refales Humidité Pluie (taux horaire)
00:00 63 °F 60.8 °F 29.9 in Calm     90 % 0 in
00:05 63 °F 60.8 °F 29.9 in Calm   1.1 mph 91 % 0 in
00:10 63 °F 60.8 °F 29.9 in Calm   1.1 mph 91 % 0 in
00:15 63 °F 60.8 °F 29.9 in Calm     91 % 0.01 in
00:20 62.8 °F 60.8 °F 29.9 in Calm     91 % 0.01 in
00:25 62.8 °F 60.8 °F 29.9 in Calm     92 % 0.01 in
00:30 62.6 °F 60.8 °F 29.9 in Calm   0.9 mph 92 % 0.01 in
00:35 62.6 °F 60.8 °F 29.9 in Calm   0.9 mph 92 % 0.01 in
00:40 62.6 °F 60.8 °F 29.9 in Calm   2.2 mph 92 % 0.01 in
00:45 62.4 °F 60.8 °F 29.9 in Calm   2.7 mph 93 % 0.02 in
00:50 62.4 °F 60.8 °F 29.9 in Calm   2.7 mph 93 % 0.02 in
00:55 62.2 °F 60.8 °F 29.9 in SSW 1.6 mph 2.2 mph 94 % 0.02 in
01:01 62.2 °F 60.8 °F 29.9 in Calm   2.2 mph 94 % 0.02 in
01:06 62.2 °F 60.8 °F 29.9 in Calm   1.3 mph 94 % 0.03 in
01:11 62.1 °F 60.8 °F 29.9 in Calm     94 % 0.03 in
01:16 62.1 °F 60.8 °F 29.9 in Calm     94 % 0.03 in
01:21 62.1 °F 60.8 °F 29.9 in Calm     94 % 0.03 in
01:26 61.9 °F 60.8 °F 29.9 in Calm     94 % 0.03 in
01:31 61.9 °F 60.8 °F 29.9 in Calm     95 % 0.03 in
01:36 61.9 °F 60.8 °F 29.9 in Calm     94 % 0.03 in
01:41 61.7 °F 60.8 °F 29.9 in Calm     95 % 0.03 in
01:46 61.7 °F 60.8 °F 29.9 in Calm     95 % 0.02 in
01:51 61.7 °F 60.8 °F 29.9 in Calm     95 % 0.02 in
01:52 61.7 °F 60.8 °F 29.9 in Calm     95 % 0.02 in
01:57 61.7 °F 60.8 °F 29.9 in Calm     95 % 0.03 in
02:02 61.7 °F 60.8 °F 29.9 in Calm     95 % 0.02 in
02:07 61.7 °F 60.8 °F 29.9 in Calm     95 % 0.02 in
02:12 61.5 °F 60.8 °F 29.8 in Calm     95 % 0.02 in
02:17 61.5 °F 60.8 °F 29.8 in Calm   3.6 mph 95 % 0.01 in
02:22 61.5 °F 60.8 °F 29.8 in Calm   3.6 mph 95 % 0.01 in
02:27 61.5 °F 60.8 °F 29.8 in Calm   4 mph 95 % 0.01 in
02:32 61.5 °F 60.8 °F 29.8 in Calm   4 mph 96 % 0.01 in
02:37 61.5 °F 60.8 °F 29.8 in Calm   4.3 mph 96 % 0.01 in
02:42 61.5 °F 60.8 °F 29.8 in Calm   4.3 mph 96 % 0.01 in
02:47 61.5 °F 60.8 °F 29.8 in SSE 4.7 mph 4.7 mph 96 % 0.01 in
02:52 61.7 °F 60.8 °F 29.8 in Calm   5.4 mph 96 % 0.01 in
02:57 61.7 °F 60.8 °F 29.8 in WNW 4 mph 5.4 mph 96 % 0 in
03:02 61.7 °F 60.8 °F 29.8 in Calm   4 mph 96 % 0 in
03:07 61.7 °F 60.8 °F 29.8 in SW 2 mph 4 mph 95 % 0 in
03:13 61.7 °F 60.8 °F 29.8 in Calm   3.1 mph 95 % 0 in
03:18 61.7 °F 60.8 °F 29.8 in WSW 2.2 mph 5.4 mph 95 % 0 in
03:23 61.5 °F 60.8 °F 29.8 in Calm   5.4 mph 95 % 0 in
03:28 61.5 °F 60.8 °F 29.8 in Calm   2.2 mph 95 % 0 in
03:33 61.3 °F 60.8 °F 29.8 in Calm   0.9 mph 95 % 0 in
03:38 61.3 °F 60.8 °F 29.8 in Calm   0.9 mph 95 % 0 in
03:43 61.3 °F 60.8 °F 29.8 in Calm   2.9 mph 95 % 0 in
03:48 61.5 °F 60.8 °F 29.8 in Calm   4 mph 96 % 0 in
03:53 61.7 °F 60.8 °F 29.8 in SSW 1.6 mph 7.2 mph 96 % 0 in
03:58 61.7 °F 60.8 °F 29.8 in Calm   7.2 mph 96 % 0 in
04:03 61.9 °F 60.8 °F 29.8 in Calm   4 mph 96 % 0 in
04:08 61.9 °F 60.8 °F 29.8 in Calm   4 mph 96 % 0 in
04:13 61.9 °F 60.8 °F 29.8 in Calm   3.8 mph 96 % 0 in
04:18 61.9 °F 60.8 °F 29.8 in Calm   3.8 mph 96 % 0 in
04:23 61.9 °F 60.8 °F 29.8 in Calm   3.4 mph 96 % 0 in
04:28 61.9 °F 60.8 °F 29.8 in Calm   2.7 mph 96 % 0 in
04:33 61.9 °F 60.8 °F 29.8 in South 0.9 mph 2.7 mph 96 % 0 in
04:38 61.9 °F 60.8 °F 29.8 in Calm   2.9 mph 96 % 0 in
04:43 61.9 °F 60.8 °F 29.8 in Calm   3.1 mph 96 % 0 in
04:49 61.9 °F 60.8 °F 29.8 in Calm   3.1 mph 96 % 0 in
04:54 62.1 °F 60.8 °F 29.8 in SSW 5.8 mph 5.8 mph 96 % 0 in
04:59 62.1 °F 60.8 °F 29.8 in SSW 3.8 mph 5.8 mph 96 % 0 in
05:04 62.4 °F 62.6 °F 29.8 in Calm   6.3 mph 96 % 0 in
05:09 62.6 °F 60.8 °F 29.8 in Calm   6.3 mph 95 % 0 in
05:15 62.6 °F 60.8 °F 29.8 in WSW 5.8 mph 5.8 mph 95 % 0 in
05:20 62.4 °F 60.8 °F 29.8 in SSW 3.1 mph 5.8 mph 95 % 0 in
05:22 62.4 °F 60.8 °F 29.8 in South 4 mph 6.5 mph 95 % 0 in
05:24 62.4 °F 60.8 °F 29.8 in SW 4.7 mph 6.5 mph 95 % 0 in
05:25 62.4 °F 60.8 °F 29.8 in South 2.9 mph 6.5 mph 95 % 0 in
05:30 62.4 °F 60.8 °F 29.8 in Calm   6.5 mph 95 % 0 in
05:31 62.4 °F 60.8 °F 29.8 in South 0.9 mph 6 mph 95 % 0 in
05:37 62.6 °F 60.8 °F 29.8 in SW 5.8 mph 6 mph 95 % 0 in
05:42 62.8 °F 60.8 °F 29.8 in SSW 4 mph 6.5 mph 95 % 0 in
05:47 63 °F 60.8 °F 29.8 in SW 5.4 mph 8.1 mph 94 % 0 in
05:52 63.1 °F 60.8 °F 29.8 in SW 0.9 mph 8.1 mph 94 % 0 in
05:57 63.1 °F 60.8 °F 29.8 in Calm   7.8 mph 94 % 0 in
06:02 63.3 °F 60.8 °F 29.8 in WSW 1.1 mph 7.8 mph 94 % 0 in
06:07 63.3 °F 60.8 °F 29.8 in Calm   7.6 mph 94 % 0 in
06:12 63.5 °F 62.6 °F 29.8 in SSW 7.6 mph 7.6 mph 94 % 0 in
06:17 63.5 °F 62.6 °F 29.8 in SSW 4 mph 7.8 mph 93 % 0 in
06:22 63.5 °F 62.6 °F 29.8 in SSE 4.9 mph 8.1 mph 93 % 0 in
06:27 63.7 °F 62.6 °F 29.8 in Calm   8.1 mph 94 % 0 in
06:32 63.9 °F 62.6 °F 29.8 in South 5.4 mph 7.8 mph 94 % 0 in
06:37 63.7 °F 62.6 °F 29.8 in South 0.9 mph 7.8 mph 94 % 0 in
06:42 63.7 °F 62.6 °F 29.8 in Calm   5.8 mph 94 % 0 in
06:47 63.9 °F 62.6 °F 29.8 in SW 5.4 mph 6.5 mph 94 % 0 in
06:52 63.9 °F 62.6 °F 29.8 in SW 4.3 mph 6.5 mph 94 % 0 in
06:57 64.2 °F 62.6 °F 29.8 in WSW 1.3 mph 7.8 mph 94 % 0 in
07:02 64.4 °F 62.6 °F 29.8 in WSW 4.7 mph 7.8 mph 94 % 0 in
07:07 64.4 °F 62.6 °F 29.8 in SSW 4.3 mph 6.5 mph 94 % 0 in
07:12 64.4 °F 62.6 °F 29.8 in WSW 4.9 mph 6.5 mph 93 % 0 in
07:17 64.4 °F 62.6 °F 29.8 in WSW 6.5 mph 6.5 mph 93 % 0 in
07:22 64.2 °F 62.6 °F 29.8 in South 3.6 mph 6.9 mph 94 % 0 in
07:27 64.2 °F 62.6 °F 29.8 in SSW 3.4 mph 7.6 mph 94 % 0 in
07:32 64 °F 62.6 °F 29.8 in SW 7.4 mph 7.8 mph 94 % 0 in
07:37 64 °F 62.6 °F 29.8 in SW 5.6 mph 7.8 mph 95 % 0.02 in
07:42 63.9 °F 62.6 °F 29.8 in SSW 3.6 mph 7.6 mph 95 % 0.02 in
07:47 63.7 °F 62.6 °F 29.8 in South 4.3 mph 8.5 mph 95 % 0.02 in
07:52 63.5 °F 62.6 °F 29.8 in South 3.8 mph 8.5 mph 96 % 0.05 in
07:57 63.5 °F 62.6 °F 29.8 in South 6.3 mph 12.3 mph 96 % 0.05 in
08:02 63.5 °F 62.6 °F 29.8 in SW 5.4 mph 12.3 mph 96 % 0.05 in
08:07 63.5 °F 62.6 °F 29.8 in SW 6.5 mph 10.1 mph 96 % 0.05 in
08:12 63.7 °F 62.6 °F 29.8 in SSW 6.5 mph 10.1 mph 97 % 0.05 in
08:17 63.7 °F 62.6 °F 29.8 in SSW 6.3 mph 7.6 mph 97 % 0.05 in
08:22 63.9 °F 62.6 °F 29.8 in SW 8.1 mph 9.4 mph 97 % 0.05 in
08:27 64.2 °F 64.4 °F 29.8 in SSW 5.4 mph 9.4 mph 97 % 0.05 in
08:32 64.2 °F 64.4 °F 29.8 in SW 6.3 mph 8.7 mph 97 % 0.05 in
08:37 64.4 °F 64.4 °F 29.8 in SSW 6.3 mph 10.7 mph 97 % 0.03 in
08:42 64.6 °F 64.4 °F 29.8 in SW 6 mph 11 mph 97 % 0.03 in
08:47 64.9 °F 64.4 °F 29.8 in SSW 5.6 mph 11 mph 97 % 0.03 in
08:52 65.1 °F 64.4 °F 29.8 in SW 10.3 mph 10.5 mph 97 % 0.01 in
08:57 65.5 °F 64.4 °F 29.8 in SW 10.1 mph 12.5 mph 97 % 0.01 in
09:02 65.5 °F 64.4 °F 29.8 in SW 7.6 mph 12.5 mph 96 % 0.01 in
09:07 65.5 °F 64.4 °F 29.8 in SW 5.4 mph 12.5 mph 96 % 0.01 in
09:13 65.7 °F 64.4 °F 29.8 in South 8.5 mph 10.1 mph 96 % 0.02 in
09:18 65.8 °F 64.4 °F 29.8 in South 6.5 mph 10.3 mph 96 % 0.02 in
09:23 66 °F 66.2 °F 29.8 in WSW 12.3 mph 12.3 mph 96 % 0.02 in
09:28 66.6 °F 66.2 °F 29.8 in West 8.7 mph 12.3 mph 96 % 0.02 in
09:33 67.8 °F 68 °F 29.8 in West 8.7 mph 12.3 mph 96 % 0.02 in
09:38 68.5 °F 66.2 °F 29.8 in WSW 17.7 mph 17.7 mph 94 % 0.01 in
09:43 68.5 °F 66.2 °F 29.8 in West 14.5 mph 22.6 mph 90 % 0.01 in
09:48 68.7 °F 64.4 °F 29.8 in West 14.3 mph 22.6 mph 88 % 0.01 in
09:53 68.5 °F 62.6 °F 29.8 in WSW 14.8 mph 24.2 mph 81 % 0.01 in
09:58 68.2 °F 62.6 °F 29.8 in WSW 10.7 mph 24.2 mph 81 % 0.01 in
10:03 68.2 °F 60.8 °F 29.8 in WSW 15.4 mph 19.2 mph 79 % 0.01 in
10:08 68 °F 60.8 °F 29.8 in SSW 15.4 mph 20.1 mph 77 % 0.01 in
10:13 68.2 °F 60.8 °F 29.8 in West 13.2 mph 22.1 mph 77 % 0 in
10:18 68.4 °F 60.8 °F 29.8 in WSW 12.5 mph 22.1 mph 76 % 0 in
10:23 68.9 °F 62.6 °F 29.8 in WSW 13.2 mph 19.5 mph 78 % 0 in
10:28 68.5 °F 62.6 °F 29.8 in West 13.2 mph 17.9 mph 79 % 0 in
10:33 68.4 °F 62.6 °F 29.8 in WSW 14.8 mph 17 mph 79 % 0 in
10:39 68.2 °F 62.6 °F 29.8 in West 13.2 mph 15.4 mph 80 % 0 in
10:44 68.2 °F 62.6 °F 29.8 in West 13.6 mph 15.4 mph 80 % 0 in
10:49 68.4 °F 60.8 °F 29.8 in SW 10.3 mph 15.4 mph 78 % 0 in
10:54 68.4 °F 60.8 °F 29.8 in WSW 12.8 mph 16.1 mph 76 % 0 in
10:59 68.7 °F 59 °F 29.8 in WSW 10.1 mph 23.5 mph 73 % 0 in
11:04 69.6 °F 60.8 °F 29.8 in West 12.5 mph 23.5 mph 72 % 0 in
11:09 70.2 °F 60.8 °F 29.8 in WNW 12.3 mph 19.7 mph 70 % 0 in
11:14 70 °F 60.8 °F 29.8 in WSW 7.8 mph 22.6 mph 71 % 0 in
11:19 70 °F 59 °F 29.8 in WSW 16.8 mph 22.6 mph 70 % 0 in
11:24 70.3 °F 59 °F 29.8 in West 17.4 mph 19 mph 68 % 0 in
11:29 70.3 °F 59 °F 29.8 in WSW 19.2 mph 25.5 mph 67 % 0 in
11:34 70 °F 57.2 °F 29.8 in WSW 10.5 mph 25.5 mph 66 % 0 in
11:39 70 °F 57.2 °F 29.8 in WSW 14.8 mph 23.3 mph 66 % 0 in
11:44 70 °F 57.2 °F 29.8 in West 18.8 mph 23.3 mph 65 % 0 in
11:45 70 °F 57.2 °F 29.8 in West 18.8 mph 23.3 mph 65 % 0 in
11:50 69.4 °F 57.2 °F 29.8 in WSW 10.7 mph 25.3 mph 64 % 0 in
12:00 72.5 °F 59 °F 29.8 in SW 12.8 mph 23.7 mph 63 % 0 in
12:05 72.3 °F 57.2 °F 29.8 in WSW 13 mph 25.5 mph 61 % 0 in
12:10 71.1 °F 57.2 °F 29.8 in West 12.5 mph 25.5 mph 62 % 0 in
12:15 72.9 °F 59 °F 29.8 in WSW 19.5 mph 26.8 mph 60 % 0 in
12:20 72 °F 57.2 °F 29.8 in WSW 10.5 mph 26.8 mph 58 % 0 in
12:25 71.4 °F 57.2 °F 29.8 in WSW 15.4 mph 26.8 mph 61 % 0 in
12:30 72.3 °F 57.2 °F 29.8 in West 22.1 mph 25.1 mph 58 % 0 in
12:35 73.2 °F 59 °F 29.8 in West 17 mph 23.5 mph 59 % 0 in
12:40 71.8 °F 57.2 °F 29.8 in West 15.2 mph 25.5 mph 59 % 0 in
12:45 71.4 °F 57.2 °F 29.8 in WSW 12.8 mph 25.5 mph 62 % 0 in
12:50 71.1 °F 55.4 °F 29.8 in West 14.1 mph 25.9 mph 57 % 0 in
12:55 71.6 °F 55.4 °F 29.8 in SW 25.5 mph 25.9 mph 54 % 0 in
13:00 72 °F 55.4 °F 29.8 in West 22.8 mph 27.1 mph 53 % 0 in
13:05 72.3 °F 55.4 °F 29.8 in WSW 14.8 mph 27.1 mph 53 % 0 in
13:10 73.6 °F 55.4 °F 29.9 in SW 12.8 mph 26.2 mph 52 % 0 in
13:15 73.9 °F 55.4 °F 29.9 in WSW 10.3 mph 23.7 mph 51 % 0 in
13:20 73.6 °F 53.6 °F 29.9 in WSW 19.5 mph 23.9 mph 49 % 0 in
13:25 72.7 °F 53.6 °F 29.9 in WSW 22.8 mph 25.5 mph 50 % 0 in
13:30 72.3 °F 53.6 °F 29.9 in West 15.7 mph 27.1 mph 50 % 0 in
13:35 73.4 °F 55.4 °F 29.9 in West 15.4 mph 27.1 mph 51 % 0 in
13:40 72.7 °F 53.6 °F 29.9 in WSW 19.9 mph 25.1 mph 49 % 0 in
13:45 73 °F 55.4 °F 29.9 in SW 16.8 mph 25.1 mph 52 % 0 in
13:50 73 °F 55.4 °F 29.9 in WSW 17.2 mph 24.2 mph 53 % 0 in
13:55 72.3 °F 53.6 °F 29.9 in WSW 19.9 mph 29.1 mph 52 % 0 in
13:56 72.3 °F 53.6 °F 29.9 in SW 21.9 mph 29.1 mph 52 % 0 in
14:02 71.6 °F 55.4 °F 29.9 in WSW 28.4 mph 29.1 mph 54 % 0 in
14:07 72.5 °F 55.4 °F 29.9 in WSW 22.6 mph 29.1 mph 56 % 0 in
14:12 71.2 °F 55.4 °F 29.9 in West 19.7 mph 28.4 mph 56 % 0 in
14:17 72.1 °F 57.2 °F 29.9 in West 10.3 mph 25.1 mph 58 % 0 in
14:22 72.1 °F 57.2 °F 29.9 in SSW 16.1 mph 25.3 mph 58 % 0 in
14:27 72.1 °F 55.4 °F 29.8 in WSW 25.3 mph 30 mph 55 % 0 in
14:32 72.7 °F 55.4 °F 29.8 in WSW 14.1 mph 30 mph 55 % 0 in
14:37 73.8 °F 55.4 °F 29.8 in WSW 12.5 mph 33.1 mph 52 % 0 in
14:42 74.8 °F 55.4 °F 29.9 in West 14.3 mph 33.1 mph 51 % 0 in
14:47 74.8 °F 55.4 °F 29.9 in SW 16.1 mph 28 mph 49 % 0 in
14:52 75.2 °F 53.6 °F 29.9 in SW 28 mph 28 mph 45 % 0 in
14:57 75.6 °F 53.6 °F 29.9 in WSW 22.6 mph 28 mph 45 % 0 in
15:02 76.3 °F 53.6 °F 29.9 in WSW 12.8 mph 28 mph 45 % 0 in
15:07 75.9 °F 53.6 °F 29.9 in West 24.6 mph 25.7 mph 45 % 0 in
15:12 75.4 °F 51.8 °F 29.9 in SW 20.4 mph 24.6 mph 44 % 0 in
15:17 76.1 °F 53.6 °F 29.9 in West 17.9 mph 25.1 mph 44 % 0 in
15:20 76.5 °F 53.6 °F 29.9 in WNW 13.2 mph 26.6 mph 44 % 0 in
15:25 75.9 °F 51.8 °F 29.9 in WSW 22.6 mph 26.6 mph 42 % 0 in
15:30 74.7 °F 51.8 °F 29.9 in WSW 15.2 mph 25.1 mph 44 % 0 in
15:35 74.1 °F 51.8 °F 29.9 in WSW 23 mph 25.3 mph 44 % 0 in
15:40 74.1 °F 51.8 °F 29.9 in WSW 17 mph 27.5 mph 45 % 0 in
15:45 73.8 °F 51.8 °F 29.9 in WSW 19 mph 27.5 mph 46 % 0 in
15:50 73.2 °F 51.8 °F 29.9 in West 16.1 mph 25.3 mph 46 % 0 in
15:55 73 °F 51.8 °F 29.9 in West 25.1 mph 25.3 mph 47 % 0 in
16:00 73.8 °F 53.6 °F 29.8 in WSW 12.8 mph 25.1 mph 47 % 0 in
16:05 73 °F 51.8 °F 29.8 in SW 10.7 mph 28.4 mph 48 % 0 in
16:10 73.4 °F 53.6 °F 29.8 in WSW 16.6 mph 28.4 mph 49 % 0 in
16:15 74.8 °F 55.4 °F 29.9 in WNW 12.8 mph 28 mph 51 % 0 in
16:20 74.3 °F 55.4 °F 29.9 in WSW 25.7 mph 25.7 mph 50 % 0 in
16:25 73.9 °F 55.4 °F 29.9 in WSW 21.3 mph 26.6 mph 52 % 0 in
16:30 72.7 °F 55.4 °F 29.9 in West 19.7 mph 28.9 mph 52 % 0 in
16:35 72.3 °F 55.4 °F 29.9 in WSW 25.3 mph 33.8 mph 54 % 0 in
16:40 72.3 °F 55.4 °F 29.9 in SSW 16.3 mph 33.8 mph 54 % 0 in
16:45 72.9 °F 55.4 °F 29.9 in West 10.1 mph 25.9 mph 53 % 0 in
16:50 73.8 °F 55.4 °F 29.9 in WSW 24.6 mph 25.9 mph 51 % 0 in
16:55 73.4 °F 53.6 °F 29.9 in West 17.9 mph 31.8 mph 50 % 0 in
17:00 73.4 °F 53.6 °F 29.9 in SW 19.2 mph 31.8 mph 48 % 0 in
17:05 73.8 °F 53.6 °F 29.9 in West 17 mph 25.9 mph 49 % 0 in
17:10 73.2 °F 51.8 °F 29.9 in SW 12.8 mph 26.6 mph 47 % 0 in
17:15 72.9 °F 51.8 °F 29.9 in WSW 15.2 mph 28.4 mph 46 % 0 in
17:20 72.9 °F 51.8 °F 29.9 in West 19.7 mph 28.4 mph 46 % 0 in
17:25 73 °F 51.8 °F 29.9 in WSW 13 mph 24.6 mph 47 % 0 in
17:30 72.5 °F 51.8 °F 29.9 in WSW 12.3 mph 25.7 mph 46 % 0 in
17:35 72.7 °F 51.8 °F 29.9 in WSW 22.6 mph 30.6 mph 46 % 0 in
17:40 73.4 °F 51.8 °F 29.9 in WSW 14.8 mph 31.8 mph 46 % 0 in
17:45 73.9 °F 51.8 °F 29.8 in WSW 20.1 mph 31.8 mph 46 % 0 in
17:50 72.9 °F 51.8 °F 29.8 in West 17.7 mph 23.9 mph 47 % 0 in
17:55 72.1 °F 51.8 °F 29.8 in WSW 21.9 mph 30.2 mph 48 % 0 in
18:00 72 °F 51.8 °F 29.9 in WSW 13.2 mph 30.2 mph 48 % 0 in
18:05 72 °F 51.8 °F 29.9 in SSW 17.7 mph 27.1 mph 49 % 0 in
18:10 71.8 °F 51.8 °F 29.9 in WSW 21.3 mph 25.3 mph 50 % 0 in
18:15 72 °F 53.6 °F 29.9 in WNW 15.2 mph 22.8 mph 51 % 0 in
18:20 71.6 °F 53.6 °F 29.9 in WSW 26.2 mph 26.2 mph 51 % 0 in
18:25 71.4 °F 53.6 °F 29.9 in WSW 22.8 mph 30.2 mph 51 % 0 in
18:30 71.2 °F 53.6 °F 29.9 in WSW 17.2 mph 30.2 mph 52 % 0 in
18:35 71.2 °F 53.6 °F 29.9 in WSW 17.4 mph 24.4 mph 53 % 0 in
18:40 71.1 °F 53.6 °F 29.9 in West 17.4 mph 25.7 mph 54 % 0 in
18:45 72.1 °F 55.4 °F 29.9 in West 22.8 mph 25.7 mph 53 % 0 in
18:50 71.8 °F 53.6 °F 29.9 in WSW 22.4 mph 24.4 mph 53 % 0 in
18:55 71.2 °F 51.8 °F 29.9 in WSW 23.5 mph 28.9 mph 50 % 0 in
19:00 71.1 °F 51.8 °F 29.9 in WSW 19.7 mph 28.9 mph 51 % 0 in
19:05 71.1 °F 51.8 °F 29.9 in West 16.8 mph 23 mph 51 % 0 in
19:11 71.2 °F 51.8 °F 29.9 in West 11.4 mph 26.4 mph 51 % 0 in
19:16 72.1 °F 53.6 °F 29.9 in West 25.7 mph 26.4 mph 50 % 0 in
19:21 72.1 °F 53.6 °F 29.9 in WSW 13.2 mph 25.7 mph 52 % 0 in
19:26 71.4 °F 53.6 °F 29.9 in WSW 14.1 mph 25.7 mph 51 % 0 in
19:31 71.2 °F 51.8 °F 29.9 in WSW 12.8 mph 26.2 mph 51 % 0 in
19:36 70.9 °F 53.6 °F 29.9 in SW 21.9 mph 26.2 mph 52 % 0 in
19:41 70.5 °F 53.6 °F 29.9 in West 11.4 mph 25.9 mph 53 % 0 in
19:46 70.2 °F 53.6 °F 29.9 in West 9.6 mph 22.4 mph 54 % 0 in
19:51 70.2 °F 53.6 °F 29.9 in West 10.7 mph 20.6 mph 55 % 0 in
19:56 70.3 °F 53.6 °F 29.9 in West 13 mph 20.8 mph 55 % 0 in
20:01 70 °F 53.6 °F 29.9 in WSW 17.4 mph 23.9 mph 54 % 0 in
20:06 69.8 °F 53.6 °F 29.9 in West 10.5 mph 23.9 mph 55 % 0 in
20:11 69.8 °F 53.6 °F 29.9 in West 8.7 mph 18.6 mph 56 % 0 in
20:16 70 °F 53.6 °F 29.9 in WSW 20.8 mph 22.6 mph 55 % 0 in
20:21 69.8 °F 53.6 °F 29.9 in WSW 12.5 mph 22.6 mph 56 % 0 in
20:26 69.6 °F 55.4 °F 29.9 in WSW 9.6 mph 20.8 mph 58 % 0 in
20:31 69.4 °F 53.6 °F 29.9 in SSW 8.5 mph 17.9 mph 58 % 0 in
20:36 69.3 °F 55.4 °F 29.9 in WSW 12.3 mph 15.9 mph 59 % 0 in
20:41 68.9 °F 55.4 °F 29.9 in WSW 11 mph 19.9 mph 60 % 0 in
20:46 68.7 °F 55.4 °F 29.9 in WSW 13.9 mph 19.9 mph 61 % 0 in
20:51 68.5 °F 55.4 °F 29.9 in WSW 14.8 mph 17.7 mph 62 % 0 in
20:56 68.4 °F 55.4 °F 29.9 in WSW 15.7 mph 16.3 mph 62 % 0 in
21:01 68.2 °F 55.4 °F 29.9 in WSW 7.6 mph 15.7 mph 63 % 0 in
21:06 68 °F 55.4 °F 29.9 in WSW 13 mph 17.2 mph 64 % 0 in
21:11 68 °F 55.4 °F 29.9 in WSW 11 mph 17.2 mph 64 % 0 in
21:17 67.8 °F 55.4 °F 29.9 in SW 10.7 mph 16.6 mph 65 % 0 in
21:22 67.6 °F 55.4 °F 29.9 in WSW 10.5 mph 16.6 mph 66 % 0 in
21:27 67.6 °F 55.4 °F 29.9 in WSW 10.1 mph 15.2 mph 67 % 0 in
21:32 67.5 °F 55.4 °F 29.9 in WSW 6.3 mph 17 mph 67 % 0 in
21:37 67.3 °F 57.2 °F 29.9 in WSW 5.6 mph 17 mph 68 % 0 in
21:42 67.1 °F 57.2 °F 29.9 in West 15.7 mph 17.4 mph 68 % 0 in
21:47 67.1 °F 57.2 °F 29.9 in West 6.5 mph 18.6 mph 69 % 0 in
21:52 66.9 °F 57.2 °F 29.9 in WSW 8.5 mph 18.6 mph 70 % 0 in
21:57 66.7 °F 57.2 °F 29.9 in WNW 6.5 mph 14.8 mph 70 % 0 in
22:02 66.6 °F 57.2 °F 29.9 in West 6 mph 14.8 mph 70 % 0 in
22:07 66.4 °F 57.2 °F 29.9 in SW 10.3 mph 13.6 mph 71 % 0 in
22:12 66 °F 57.2 °F 29.9 in WSW 7.4 mph 13.6 mph 72 % 0 in
22:17 66 °F 57.2 °F 29.9 in West 7.8 mph 10.5 mph 72 % 0 in
22:22 66 °F 57.2 °F 29.9 in WSW 12.8 mph 14.5 mph 73 % 0 in
22:27 65.8 °F 57.2 °F 29.9 in West 11 mph 14.5 mph 73 % 0 in
22:32 65.8 °F 57.2 °F 29.9 in West 8.1 mph 15.2 mph 74 % 0 in
22:37 65.7 °F 57.2 °F 29.9 in West 10.7 mph 15.2 mph 74 % 0 in
22:42 65.7 °F 57.2 °F 29.9 in West 11 mph 14.5 mph 74 % 0 in
22:47 65.7 °F 57.2 °F 29.9 in WSW 10.7 mph 13.9 mph 74 % 0 in
22:52 65.7 °F 57.2 °F 29.9 in WSW 10.1 mph 14.1 mph 75 % 0 in
22:57 65.5 °F 57.2 °F 29.9 in WSW 3.8 mph 14.1 mph 75 % 0 in
23:02 65.5 °F 57.2 °F 29.9 in WSW 5.6 mph 10.7 mph 75 % 0 in
23:07 65.3 °F 57.2 °F 29.9 in SW 7.4 mph 11.4 mph 76 % 0 in
23:12 65.3 °F 57.2 °F 29.9 in West 10.1 mph 12.5 mph 76 % 0 in
23:17 65.3 °F 57.2 °F 29.9 in West 5.4 mph 12.5 mph 76 % 0 in
23:22 65.3 °F 57.2 °F 29.9 in West 8.1 mph 11.9 mph 76 % 0 in
23:27 65.3 °F 57.2 °F 29.9 in WSW 10.5 mph 13.2 mph 76 % 0 in
23:32 65.3 °F 57.2 °F 29.9 in West 7.6 mph 16.6 mph 74 % 0 in
23:37 65.3 °F 57.2 °F 29.9 in SSW 8.5 mph 16.6 mph 73 % 0 in
23:43 65.1 °F 55.4 °F 29.9 in WSW 12.5 mph 13.2 mph 73 % 0 in
23:48 65.1 °F 55.4 °F 29.9 in SSW 8.7 mph 12.5 mph 73 % 0 in
23:53 65.1 °F 55.4 °F 29.9 in WSW 9.8 mph 10.7 mph 72 % 0 in
23:58 65.1 °F 55.4 °F 29.9 in West 6.5 mph 12.1 mph 72 % 0 in
Le Gheer Warneton
Courtoisie de Weather Underground - 2.25 mb

Mise a jour : 16-12-17 12:15:12
Généré par Cumulus 1.9.4 (1099)